Погода в Макасаре

Индонезия     5°10′04″S   119°27′08″E
темп.,
°C
ветер,
м/с
пор.,
м/с
влажн.,
%
обл.,
%
осадки,
мм/ч
давл.,
гПа
погр.,
м
2 марта, вт
вт223:00+24всв238849 0.0 101147
02:00+24всв238568 0.0 100948
05:00+23всв238559 0.0 100941
08:00+27всв227749 0.0 1011142
11:00+31ссз226060 0.0 1011947
14:00+31зсз436232 0.0 1008896
17:00+29зсз237677 0.9 1007545
20:00+26всв128288 1.1 101024
3 марта, ср
ср323:00+25в228682 0.0 101139
02:00+24в228655 0.2 100927
05:00+24в12860 0.2 100926
08:00+27в12760 0.2 1011135
11:00+31сз22590 0.0 1011992
14:00+31з44605 0.3 10081085
17:00+29з237296 0.8 1008605
20:00+26ююв118293 1.6 101027
4 марта, чт
чт423:00+24в228773 0.2 101127
02:00+24в228678 0.2 101027
05:00+24всв2385100 0.0 101038
08:00+27всв2380100 0.6 1012148
11:00+29сз3471100 3.9 1012679
14:00+29сз3471100 10.5 1009833
17:00+28с3480100 5.0 1008503
20:00+25всв228999 6.6 101135
5 марта, пт
пт523:00+24всв238782 0.2 101133
02:00+24всв228583 0.2 101030
05:00+24всв2283100 0.0 101032
08:00+26св237899 0.0 1011133
11:00+30ссз336545 0.0 1011954
14:00+30зсз446757 1.8 1008977
17:00+28сз247791 3.2 1008733
20:00+25ссв128695 4.3 101038
6 марта, сб
сб623:00+24в238847 0.1 101047
02:00+23всв238826 0.1 100948
05:00+23всв238545 0.0 100942
08:00+27в127468 0.0 1011111
11:00+31ссз225671 0.0 1010989
14:00+31зсз445756 0.0 10081116
17:00+29сз237460 2.0 1008429
20:00+25всв238553 3.1 101029